| time (UTC) | temp F | wind direction | speed MPH | gust MPH | rain 1hr in | rain 24hr in | rain mn in | humidity % | barometer mb |
| 20260506023051 | 69 | 139 | 0.0 | 0.0 | 0.00 | 0.00 | 0.00 | 88 | 1015.8 |
| 20260506022045 | 69 | 139 | 0.0 | 0.0 | 0.00 | 0.00 | 0.00 | 88 | 1015.6 |
| 20260506021039 | 70 | 139 | 0.0 | 0.0 | 0.00 | 0.00 | 0.00 | 87 | 1015.4 |
| 20260506020124 | 70 | 139 | 0.0 | 0.0 | 0.00 | 0.00 | 0.00 | 86 | 1015.2 |
| 20260506015049 | 70 | 139 | 0.0 | 0.0 | 0.00 | 0.00 | 0.00 | 84 | 1015.2 |
| 20260506014042 | 71 | 139 | 0.0 | 0.0 | 0.00 | 0.00 | 0.00 | 83 | 1015.0 |
| 20260506013039 | 71 | 139 | 0.0 | 0.0 | 0.00 | 0.00 | 0.00 | 81 | 1015.0 |
| 20260506012113 | 72 | 139 | 0.0 | 0.0 | 0.00 | 0.00 | 0.00 | 80 | 1015.0 |
| 20260506011045 | 72 | 139 | 0.0 | 0.0 | 0.00 | 0.00 | 0.00 | 79 | 1015.0 |
| 20260506010130 | 73 | 139 | 0.0 | 0.0 | 0.00 | 0.00 | 0.00 | 78 | 1014.9 |
| 20260506005055 | 73 | 139 | 0.0 | 0.0 | 0.00 | 0.00 | 0.00 | 76 | 1014.9 |
| 20260506004046 | 74 | 139 | 0.0 | 0.0 | 0.00 | 0.00 | 0.00 | 75 | 1014.8 |
| 20260506003101 | 75 | 139 | 0.0 | 0.0 | 0.00 | 0.00 | 0.00 | 74 | 1014.7 |
| 20260506002110 | 75 | 139 | 0.0 | 0.0 | 0.00 | 0.00 | 0.00 | 73 | 1014.6 |
| 20260506001104 | 76 | 139 | 0.0 | 1.0 | 0.00 | 0.00 | 0.00 | 71 | 1014.6 |
| 20260506000125 | 76 | 139 | 0.0 | 2.0 | 0.00 | 0.00 | 0.00 | 70 | 1014.8 |
| 20260505235049 | 76 | 139 | 0.0 | 2.0 | 0.00 | 0.00 | 0.00 | 69 | 1014.7 |
| 20260505234041 | 77 | 138 | 0.0 | 6.0 | 0.00 | 0.00 | 0.00 | 69 | 1014.7 |
| 20260505233117 | 77 | 125 | 0.0 | 5.0 | 0.00 | 0.00 | 0.00 | 68 | 1014.7 |
| 20260505232053 | 78 | 142 | 2.0 | 5.0 | 0.00 | 0.00 | 0.00 | 68 | 1014.7 |
| 20260505231047 | 78 | 151 | 0.0 | 6.0 | 0.00 | 0.00 | 0.00 | 67 | 1014.6 |
| 20260505230113 | 78 | 164 | 2.0 | 6.0 | 0.00 | 0.00 | 0.00 | 65 | 1014.7 |
| 20260505225055 | 79 | 146 | 1.0 | 8.0 | 0.00 | 0.00 | 0.00 | 65 | 1014.5 |
| 20260505224049 | 79 | 142 | 4.0 | 8.0 | 0.00 | 0.00 | 0.00 | 65 | 1014.4 |
| 20260505223040 | 79 | 153 | 1.0 | 6.0 | 0.00 | 0.00 | 0.00 | 66 | 1014.5 |
| 20260505222053 | 79 | 110 | 1.0 | 6.0 | 0.00 | 0.00 | 0.00 | 66 | 1014.5 |
| 20260505221106 | 80 | 148 | 2.0 | 8.0 | 0.00 | 0.00 | 0.00 | 66 | 1014.5 |
| 20260505220110 | 80 | 132 | 2.0 | 6.0 | 0.00 | 0.00 | 0.00 | 65 | 1014.7 |
| 20260505215050 | 80 | 128 | 2.0 | 5.0 | 0.00 | 0.00 | 0.00 | 65 | 1014.5 |
| 20260505214109 | 81 | 140 | 1.0 | 8.0 | 0.00 | 0.00 | 0.00 | 65 | 1014.7 |
| 20260505213050 | 81 | 162 | 2.0 | 9.0 | 0.00 | 0.00 | 0.00 | 64 | 1014.7 |
| 20260505212042 | 81 | 155 | 1.0 | 10.0 | 0.00 | 0.00 | 0.00 | 64 | 1014.6 |
| 20260505211115 | 81 | 160 | 2.0 | 10.0 | 0.00 | 0.00 | 0.00 | 64 | 1014.5 |
| 20260505210118 | 81 | 110 | 3.0 | 10.0 | 0.00 | 0.00 | 0.00 | 65 | 1014.4 |
| 20260505205042 | 81 | 115 | 2.0 | 8.0 | 0.00 | 0.00 | 0.00 | 65 | 1014.5 |
| 20260505204113 | 82 | 113 | 2.0 | 8.0 | 0.00 | 0.00 | 0.00 | 63 | 1014.6 |
| 20260505203044 | 81 | 119 | 0.0 | 7.0 | 0.00 | 0.00 | 0.00 | 62 | 1014.7 |
| 20260505202058 | 82 | 111 | 3.0 | 7.0 | 0.00 | 0.00 | 0.00 | 60 | 1014.8 |
| 20260505201052 | 82 | 157 | 2.0 | 6.0 | 0.00 | 0.00 | 0.00 | 60 | 1015.0 |
| 20260505200117 | 83 | 140 | 2.0 | 7.0 | 0.00 | 0.00 | 0.00 | 58 | 1015.2 |
| 20260505195102 | 82 | 156 | 2.0 | 6.0 | 0.00 | 0.00 | 0.00 | 58 | 1015.2 |
| 20260505194114 | 82 | 105 | 1.0 | 5.0 | 0.00 | 0.00 | 0.00 | 58 | 1015.3 |
| 20260505193050 | 83 | 113 | 2.0 | 5.0 | 0.00 | 0.00 | 0.00 | 57 | 1015.4 |
| 20260505192044 | 83 | 105 | 3.0 | 7.0 | 0.00 | 0.00 | 0.00 | 57 | 1015.4 |
| 20260505191040 | 83 | 109 | 1.0 | 8.0 | 0.00 | 0.00 | 0.00 | 58 | 1015.4 |
| 20260505190124 | 83 | 115 | 1.0 | 5.0 | 0.00 | 0.00 | 0.00 | 57 | 1015.5 |
| 20260505185105 | 83 | 205 | 1.0 | 6.0 | 0.00 | 0.00 | 0.00 | 56 | 1015.7 |
| 20260505184038 | 84 | 142 | 1.0 | 5.0 | 0.00 | 0.00 | 0.00 | 55 | 1015.8 |
| 20260505183110 | 82 | 143 | 1.0 | 7.0 | 0.00 | 0.00 | 0.00 | 58 | 1015.8 |
| 20260505182044 | 82 | 140 | 1.0 | 9.0 | 0.00 | 0.00 | 0.00 | 57 | 1015.8 |
| 20260505181058 | 82 | 144 | 0.0 | 10.0 | 0.00 | 0.00 | 0.00 | 57 | 1015.8 |
| 20260505180120 | 82 | 132 | 1.0 | 7.0 | 0.00 | 0.00 | 0.00 | 56 | 1015.8 |
| 20260505175047 | 82 | 128 | 1.0 | 6.0 | 0.00 | 0.00 | 0.00 | 58 | 1015.8 |
| 20260505174040 | 82 | 234 | 0.0 | 5.0 | 0.00 | 0.00 | 0.00 | 58 | 1015.9 |
| 20260505173053 | 81 | 153 | 0.0 | 5.0 | 0.00 | 0.00 | 0.00 | 57 | 1016.0 |
| 20260505172046 | 80 | 119 | 0.0 | 5.0 | 0.00 | 0.00 | 0.00 | 61 | 1016.2 |
| 20260505171038 | 80 | 101 | 1.0 | 7.0 | 0.00 | 0.00 | 0.00 | 60 | 1016.3 |
| 20260505170123 | 79 | 109 | 0.0 | 7.0 | 0.00 | 0.00 | 0.00 | 62 | 1016.5 |
| 20260505165107 | 79 | 136 | 1.0 | 4.0 | 0.00 | 0.00 | 0.00 | 62 | 1016.5 |
| 20260505164040 | 79 | 139 | 2.0 | 7.0 | 0.00 | 0.00 | 0.00 | 62 | 1016.5 |
| 20260505163053 | 79 | 186 | 1.0 | 8.0 | 0.00 | 0.00 | 0.00 | 63 | 1016.6 |
| 20260505162109 | 78 | 146 | 0.0 | 7.0 | 0.00 | 0.00 | 0.00 | 64 | 1016.6 |
| 20260505161057 | 77 | 167 | 1.0 | 5.0 | 0.00 | 0.00 | 0.00 | 66 | 1016.8 |
| 20260505160121 | 77 | 101 | 3.0 | 8.0 | 0.00 | 0.00 | 0.00 | 66 | 1016.8 |
| 20260505153052 | 75 | 177 | 1.0 | 6.0 | 0.00 | 0.00 | 0.00 | 68 | 1017.1 |
| 20260505152046 | 74 | 144 | 0.0 | 2.0 | 0.00 | 0.00 | 0.00 | 74 | 1017.1 |
| 20260505151041 | 73 | 144 | 1.0 | 5.0 | 0.00 | 0.00 | 0.00 | 73 | 1017.1 |
| 20260505150124 | 73 | 141 | 1.0 | 4.0 | 0.00 | 0.00 | 0.00 | 76 | 1017.0 |
| 20260505140126 | 65 | 161 | 0.0 | 0.0 | 0.00 | 0.00 | 0.00 | 85 | 1016.8 |
| 20260505130113 | 59 | 166 | 0.0 | 1.0 | 0.00 | 0.00 | 0.00 | 96 | 1016.5 |
| 20260505124109 | 56 | 166 | 0.0 | 0.0 | 0.00 | 0.00 | 0.00 | 98 | 1016.5 |
| 20260505123039 | 56 | 166 | 0.0 | 0.0 | 0.00 | 0.00 | 0.00 | 98 | 1016.3 |
| 20260505122052 | 55 | 166 | 0.0 | 0.0 | 0.00 | 0.00 | 0.00 | 98 | 1016.3 |
| 20260505121045 | 55 | 166 | 0.0 | 0.0 | 0.00 | 0.00 | 0.00 | 98 | 1016.4 |